Retour au catalogue

SL-8 DEB

ActifLEO
NORAD 21955·DEBRIS·🇷🇺 Russia

Lancé Feb 12, 1991 depuis Plesetsk Cosmodrome

Loading…

Prochains Passages (prochaines 24 heures)

TLE

FraisSource: Space-Track

Époque: Sep 14, 2026, 06:04 UTC

1 21955U 91009CF  26257.25339192 -.00000158  00000-0 -15486-2 0  9999
2 21955  74.3082 342.4255 0162278 279.4830 108.0055 12.08387531566051

Suivez SL-8 DEB en temps réel avec AllMySat

Download on the App Store